Theta_e
340 339 350 335 319 318 310 314 321 320 321 327 330 327 325 327 323 316 340 345 345 344 349 354 361 360 359 359 357 356 357 359 361 361 359 354 358 362 362 362 362 361 362 363 362 362 362 363 363
337 343 340 330 315 310 313 320 317 321 325 329 330 328 325 323 333 335 337 344 344 344 346 350 359 360 356 358 360 358 361 361 361 361 361 361 362 362 361 360 362 363 362 362 361 360 359 359 357
346 350 330 320 315 310 311 321 323 326 329 329 327 332 329 326 335 334 340 342 343 343 345 347 356 357 357 359 356 356 360 361 362 362 361 361 360 361 361 361 362 360 360 360 359 360 359 356 355
345 344 331 319 315 319 319 323 325 325 329 331 330 325 332 337 335 337 340 341 340 343 347 351 354 354 355 358 359 357 358 360 363 362 362 362 362 362 361 361 361 359 359 360 360 360 359 359 357
344 335 316 317 316 322 323 325 326 325 326 327 328 324 327 335 340 340 338 339 338 341 345 348 354 354 353 357 357 358 358 360 361 360 361 362 361 360 360 360 360 358 359 361 361 360 360 359 358
335 329 313 310 317 321 325 328 328 326 327 328 327 326 327 337 336 335 337 337 339 338 342 344 351 352 352 354 354 355 357 359 359 361 361 360 360 360 360 359 359 358 358 360 360 360 359 358 358
330 325 314 317 318 321 324 329 327 325 325 324 331 323 329 333 336 337 336 338 338 339 341 342 343 347 353 356 350 349 350 356 359 361 360 360 359 359 359 359 358 357 357 358 359 360 360 360 360
336 325 318 319 317 319 326 328 329 327 325 332 332 322 322 332 337 337 337 336 337 339 342 343 345 344 341 345 352 351 350 354 357 359 360 360 359 358 358 362 362 359 358 358 358 360 363 364 364
340 317 315 318 319 322 327 326 330 334 328 330 331 330 333 336 338 340 337 338 342 340 340 342 343 345 346 347 345 354 353 355 357 357 359 362 351 350 353 359 360 361 360 360 362 363 364 364 364
328 320 320 325 327 325 328 326 326 326 326 327 328 333 336 339 337 337 332 333 337 339 339 342 342 344 346 348 349 350 352 351 352 351 352 353 352 351 353 358 365 363 365 364 367 367 367 363 355
329 322 325 325 326 327 329 327 329 325 322 326 325 330 335 337 337 336 335 337 335 340 343 344 344 346 347 343 346 345 345 348 349 349 348 352 352 348 347 345 353 354 360 356 357 359 360 356 355
322 328 327 326 327 329 326 333 325 327 327 332 330 333 334 334 335 333 336 337 336 337 336 335 340 345 345 346 347 349 348 348 341 346 351 351 351 347 349 348 352 351 354 351 351 351 353 354 354
325 327 328 329 329 330 327 330 329 326 331 332 331 333 332 331 335 335 338 338 336 332 334 333 339 339 344 345 349 351 349 347 347 350 346 350 349 346 345 346 348 344 349 353 352 351 351 350 348
329 325 325 329 328 329 328 329 329 331 332 330 329 328 331 334 337 337 335 335 332 333 332 333 339 342 345 345 346 349 349 343 345 348 339 352 350 349 344 344 343 343 349 353 348 351 350 350 347
327 321 325 327 327 324 327 322 324 332 333 327 328 327 331 333 338 338 340 337 337 336 333 334 340 344 342 343 345 350 346 347 344 350 349 345 347 343 336 342 345 347 347 348 350 348 350 350 349
324 324 314 326 326 325 324 313 325 331 330 329 326 327 328 332 335 340 342 342 341 341 338 338 345 347 348 347 347 342 342 346 349 350 351 353 350 345 344 340 344 344 344 347 349 345 347 344 341
316 310 314 318 329 325 321 315 324 331 329 329 326 326 327 330 333 335 339 342 345 345 344 343 345 345 348 342 341 345 346 351 347 348 346 348 338 339 336 339 341 341 340 337 340 346 351 339 337
307 308 315 314 323 325 318 318 324 328 328 328 330 331 329 329 332 333 334 338 340 343 344 343 346 345 347 337 336 343 349 347 346 344 340 344 345 346 349 343 340 342 339 336 337 336 348 343 337
315 313 314 315 320 323 320 318 321 325 326 327 329 332 330 328 332 332 331 338 338 340 337 344 345 348 348 346 344 341 338 348 348 338 341 345 352 338 338 337 338 338 336 337 337 335 340 339 337
316 312 310 317 323 321 320 318 321 324 324 327 327 330 332 332 331 330 330 336 337 337 337 344 348 348 346 345 345 347 347 346 349 349 351 351 352 347 339 337 334 336 338 335 339 342 330 331 338
315 311 312 315 322 322 319 314 316 321 325 326 327 333 332 332 330 333 329 334 337 337 341 345 346 346 346 350 345 347 346 342 346 349 348 347 350 347 340 339 337 339 340 340 337 349 339 331 337
301 319 319 319 315 307 319 303 312 317 319 323 325 328 330 331 334 333 334 335 336 338 343 348 349 349 350 351 344 342 342 336 340 349 352 346 348 351 342 340 340 339 339 333 345 356 353 350 346
306 317 316 318 315 313 314 306 312 317 314 319 323 326 330 332 334 333 334 336 339 340 343 348 348 348 349 351 347 344 343 346 344 350 350 348 349 350 350 349 343 343 346 349 354 352 353 353 349
310 308 307 309 309 297 304 310 308 313 315 317 322 326 329 333 335 336 336 339 339 342 342 349 346 347 350 350 348 346 344 343 344 347 345 345 349 348 351 352 349 352 351 352 351 353 353 352 351
304 298 291 291 293 297 308 308 309 320 324 322 322 325 327 332 333 334 335 336 341 343 344 348 348 348 348 350 347 348 346 345 342 344 348 345 344 344 344 352 350 348 350 351 353 352 351 351 350
299 297 292 287 291 298 310 302 311 324 328 327 327 327 327 330 333 333 334 335 339 340 345 346 348 346 346 346 347 347 348 349 344 346 345 340 343 343 345 353 352 351 353 351 352 349 353 354 353
298 293 300 293 299 294 302 312 319 320 323 325 326 327 326 331 332 334 332 338 334 340 340 346 347 347 347 346 350 348 346 346 347 345 347 343 343 347 345 344 345 352 354 353 351 348 349 351 349
299 300 296 298 291 291 301 304 304 313 316 322 324 323 325 327 333 335 335 339 341 338 343 347 349 348 349 347 350 349 350 349 349 348 344 345 347 345 346 343 347 351 351 354 355 349 348 344 342
297 295 297 299 300 293 293 300 314 314 317 317 323 327 327 330 332 335 337 339 339 339 341 347 348 348 347 347 347 346 347 350 349 349 348 345 349 347 348 350 350 350 352 354 351 348 349 345 339
305 304 303 297 297 298 297 300 319 318 319 324 328 328 328 326 333 335 335 335 340 341 342 343 346 348 349 349 348 348 348 350 348 347 349 350 349 352 350 350 351 349 351 349 346 347 347 348 346
Wind_Speed
3 4 1 7 6 2 4 6 3 11 16 18 21 19 19 13 4 7 5 13 15 12 6 9 13 15 16 17 17 16 17 13 13 14 15 14 7 12 12 12 13 13 13 13 12 12 10 10 9
5 8 6 4 4 1 3 8 11 16 17 22 24 19 17 16 11 10 9 14 16 13 9 5 11 15 16 16 15 17 16 15 15 14 14 13 11 12 12 12 11 11 12 11 11 11 10 8 7
6 5 5 2 2 4 4 6 16 11 19 16 10 12 9 10 11 5 13 14 14 11 9 6 13 16 16 17 17 15 15 15 15 14 14 14 13 12 13 12 11 11 10 9 9 10 9 7 5
0 4 4 3 4 7 7 9 14 16 19 18 15 14 9 13 7 10 15 17 13 9 8 11 15 17 17 17 16 16 14 14 13 14 14 14 13 12 11 10 10 9 8 7 8 9 9 7 4
2 4 3 1 4 4 11 10 16 21 19 22 21 14 11 7 16 14 16 16 14 10 6 9 18 16 14 17 16 14 13 13 13 14 13 13 11 11 10 9 8 8 7 6 9 8 9 8 5
4 3 3 2 7 8 10 13 21 20 22 22 25 18 8 16 14 17 18 15 12 11 7 8 15 17 16 16 16 14 10 12 11 13 13 11 11 9 9 9 7 6 5 5 6 7 7 7 6
5 3 4 4 8 5 12 13 19 22 16 15 21 17 13 14 12 17 17 15 14 11 7 6 6 11 16 15 15 14 12 9 10 12 11 10 10 9 8 7 6 6 6 6 6 7 7 8 9
9 3 4 2 6 2 15 12 16 21 20 21 22 13 19 18 20 17 17 15 14 11 8 6 5 7 4 6 13 12 10 8 7 9 8 8 8 9 8 6 6 7 8 9 9 9 8 10 11
10 5 5 5 1 7 9 10 16 22 24 19 9 19 21 22 20 14 11 10 5 10 7 6 6 3 5 5 7 8 4 3 2 3 6 4 2 4 7 9 10 11 12 11 9 10 10 12 12
6 2 2 2 5 9 19 7 10 14 19 21 17 20 24 23 20 20 11 8 5 4 1 8 6 5 3 3 2 3 2 0 1 2 2 2 4 4 7 8 12 12 11 10 10 12 12 13 5
3 5 6 5 5 12 16 12 14 10 22 20 20 26 26 23 20 18 14 13 9 6 2 3 5 5 3 3 3 2 1 1 1 2 4 5 4 2 3 2 3 3 7 4 7 7 5 8 6
8 11 12 3 8 10 11 12 6 21 19 18 16 28 23 24 11 25 19 14 13 8 4 5 3 5 4 2 1 2 1 2 1 3 5 5 1 3 4 2 2 3 4 5 6 4 5 9 12
7 12 12 9 7 9 5 9 4 17 16 17 14 17 20 16 19 16 19 16 12 9 6 5 5 5 5 4 1 2 3 2 1 2 3 3 2 4 3 1 3 5 5 6 8 5 5 4 4
7 11 10 7 12 4 5 5 15 13 5 17 12 10 13 18 18 20 18 17 16 12 9 8 7 4 4 6 4 3 2 3 1 4 3 3 5 6 3 3 3 2 8 10 4 2 3 2 5
16 11 9 3 2 2 4 5 4 5 14 16 13 8 17 11 19 20 20 21 20 16 16 12 7 6 8 9 3 4 4 4 4 5 7 3 5 7 1 4 7 7 7 12 5 4 4 5 4
8 6 3 2 2 4 4 4 2 6 10 13 12 9 14 19 23 21 22 22 20 17 18 15 12 12 11 6 4 5 4 5 5 2 5 8 18 12 2 4 2 5 8 6 5 5 2 5 1
5 4 2 1 6 3 3 2 7 7 7 9 2 6 3 8 8 20 22 22 22 19 17 16 13 8 6 6 1 1 2 3 1 5 5 12 13 10 3 5 1 7 4 5 5 10 5 5 7
9 7 2 5 5 7 4 4 3 4 3 7 6 6 4 7 4 5 13 16 18 16 15 9 10 8 8 5 1 3 2 3 2 5 4 5 8 5 4 6 2 6 3 5 7 9 4 6 4
9 8 8 6 8 9 10 6 6 6 4 8 6 1 5 10 17 10 12 17 14 11 8 8 12 7 8 3 2 1 3 3 2 2 6 3 12 12 4 3 5 5 1 1 4 6 2 5 4
16 13 7 4 8 11 9 9 6 8 5 6 10 5 5 3 3 11 10 17 15 13 10 9 10 8 5 4 3 1 2 4 2 3 4 4 7 13 7 10 3 7 4 3 5 5 2 3 4
20 22 14 5 11 14 7 5 8 6 7 10 11 5 5 7 4 5 5 15 14 12 10 9 9 8 5 6 5 2 4 3 2 1 3 3 3 16 10 5 3 3 3 3 3 1 3 2 2
5 18 18 15 14 8 11 4 9 11 13 15 16 9 7 11 6 3 9 11 16 15 10 11 11 7 5 6 4 5 4 4 3 3 2 3 5 8 12 8 6 4 3 4 4 4 1 3 2
7 11 14 15 16 8 14 1 7 15 13 20 18 11 9 6 11 10 9 6 16 16 15 11 11 8 7 7 7 6 4 3 3 4 10 6 5 6 8 12 9 8 6 5 2 3 4 2 2
12 6 4 9 8 4 1 12 4 13 24 20 17 15 16 10 10 10 8 6 10 16 15 13 12 10 8 8 8 7 5 3 2 4 4 4 3 2 2 5 6 4 4 3 1 3 4 4 3
8 5 4 6 4 0 3 3 4 13 6 16 20 19 19 13 9 8 11 5 1 15 16 13 14 9 8 8 7 6 6 4 4 4 2 4 1 1 4 2 4 2 1 1 2 3 2 3 3
5 7 6 6 3 5 9 6 6 10 12 11 12 18 18 17 14 10 15 7 8 9 16 15 13 10 8 8 8 7 7 4 5 4 4 4 4 2 4 4 1 4 4 4 2 1 2 1 2
10 4 11 5 4 1 1 3 9 13 7 13 14 15 18 16 15 15 9 3 10 7 5 15 14 11 9 9 7 7 6 6 5 4 4 3 5 3 4 4 1 6 6 5 4 1 4 3 1
7 6 7 4 3 4 2 4 4 11 8 13 4 11 16 13 15 13 12 6 4 1 8 14 14 14 11 8 7 6 6 6 4 3 5 2 3 2 1 3 5 2 3 2 4 4 3 4 2
3 5 6 2 4 6 2 2 6 8 6 7 14 9 12 13 14 10 12 8 3 3 3 8 11 11 7 6 6 7 6 5 4 4 3 6 5 6 6 5 1 1 2 1 2 2 3 3 2
10 7 7 6 6 3 3 2 5 11 8 7 10 8 4 5 6 9 7 4 3 5 4 6 6 9 10 7 7 7 6 5 5 6 6 6 6 6 7 2 2 1 1 2 1 2 1 2 4
Wind_Direction
124 212 179 37 27 2 272 101 202 99 76 76 71 80 82 45 102 136 166 157 134 117 134 129 131 131 124 127 125 124 129 134 118 113 119 119 143 108 110 106 106 112 115 109 112 108 103 102 107
160 161 41 101 76 43 281 114 89 88 105 101 98 97 69 69 83 117 118 144 130 133 120 117 132 127 124 129 123 124 124 123 122 119 126 129 124 117 118 112 116 114 103 102 110 114 116 119 118
135 128 65 17 214 193 122 277 118 119 109 122 90 90 77 119 131 96 126 107 93 99 109 139 133 128 125 119 127 128 125 126 128 126 129 128 123 120 121 124 115 107 104 108 118 131 127 130 133
218 111 91 225 249 291 121 126 117 110 104 105 108 68 67 115 105 137 124 111 104 101 114 129 135 132 126 121 126 128 127 132 133 131 128 125 129 132 126 122 114 112 117 126 127 131 145 153 168
78 23 132 260 355 262 103 99 89 107 98 95 99 115 103 74 126 137 117 104 101 104 113 125 126 119 131 129 121 123 131 131 132 125 123 126 127 128 131 131 126 125 127 117 135 141 163 182 210
132 155 87 220 274 98 104 124 107 106 104 105 102 115 102 133 136 110 106 110 110 109 124 117 127 123 131 131 131 132 137 131 135 124 123 133 137 137 144 143 142 138 136 129 143 161 172 181 206
104 209 141 15 315 79 116 146 124 122 125 112 133 120 136 136 130 118 118 122 124 120 116 110 112 127 133 130 143 149 142 136 143 131 131 143 148 156 155 149 168 174 172 182 190 196 202 210 219
132 46 40 181 331 345 73 86 116 120 119 126 128 134 141 138 115 118 112 118 118 123 122 116 123 125 126 140 154 162 165 140 136 125 149 156 159 167 160 178 206 204 208 212 216 222 231 238 240
101 60 314 46 19 308 49 99 100 125 133 148 116 138 130 124 124 92 99 122 88 125 139 134 136 137 160 164 168 167 183 100 95 146 186 170 193 191 190 202 211 216 224 225 231 240 242 250 258
56 132 65 29 344 285 321 147 146 133 144 115 123 119 131 126 126 130 133 118 74 87 96 143 159 165 180 150 116 129 157 1 348 278 310 266 233 229 208 216 213 228 243 252 256 257 256 257 260
82 77 113 356 329 287 302 47 57 99 120 140 141 136 141 142 141 138 127 119 133 195 160 148 147 168 203 187 176 161 99 191 198 240 345 285 251 251 81 359 281 263 261 258 260 252 249 268 258
97 107 118 188 183 300 311 315 111 112 138 142 140 143 148 146 142 136 143 143 148 189 182 158 196 167 219 272 194 16 163 287 85 138 58 19 94 111 73 51 318 257 284 269 247 225 222 260 249
103 117 144 179 216 163 307 335 54 132 157 134 145 149 153 144 141 130 131 144 160 184 192 209 260 193 200 249 220 161 200 236 345 84 104 63 90 25 78 36 323 19 324 259 247 246 237 133 181
106 127 151 147 135 108 282 324 82 1 109 137 150 145 131 131 138 137 143 154 171 177 205 215 238 198 133 235 233 199 170 314 347 261 174 109 79 17 349 44 328 32 333 311 194 255 290 338 200
134 126 130 101 220 185 314 39 92 5 30 146 157 183 156 138 141 147 147 170 172 183 192 212 213 192 189 237 230 229 177 204 240 218 132 111 76 40 217 37 11 349 320 302 338 277 280 64 46
103 94 69 47 324 9 321 204 263 49 20 348 165 185 155 166 161 164 167 171 172 176 192 201 205 191 195 148 143 181 171 176 231 158 97 116 95 266 274 106 293 298 295 268 6 308 43 53 51
3 5 32 119 196 148 248 182 277 72 32 342 280 134 132 67 122 164 167 162 162 167 175 189 193 163 128 130 169 305 1 62 192 99 85 100 158 186 188 131 54 271 285 329 46 339 33 48 332
208 149 142 187 186 168 209 197 260 99 96 292 330 360 201 111 313 164 149 136 146 158 166 183 171 165 146 133 139 6 310 186 180 134 127 172 151 90 348 79 122 281 16 314 11 353 30 124 211
155 142 159 257 229 176 191 226 197 162 135 291 329 39 330 171 196 207 154 138 142 146 155 138 154 173 150 132 128 197 216 88 181 165 156 215 117 111 145 121 204 235 281 339 295 306 84 58 54
128 146 194 248 245 202 184 215 164 173 197 190 257 227 203 165 196 169 139 142 152 160 161 139 151 165 173 133 162 208 134 102 178 205 166 217 113 141 143 218 257 134 152 172 218 218 50 119 211
149 175 179 173 206 203 145 230 169 213 204 217 252 216 190 163 68 337 173 155 149 158 159 149 164 173 172 131 116 104 59 30 61 202 132 209 168 144 165 202 280 24 56 263 302 47 52 4 351
238 171 159 184 183 202 167 243 199 189 204 209 228 219 228 178 140 185 270 161 162 168 163 160 161 178 178 152 134 157 146 161 223 191 165 182 197 147 159 184 200 204 226 245 254 61 58 75 5
262 153 169 163 188 215 200 297 250 171 206 211 217 197 217 224 163 221 226 270 171 170 166 168 164 170 191 169 168 173 173 177 208 158 163 185 207 182 162 178 193 205 201 220 55 52 27 24 57
283 296 247 159 203 240 344 197 226 183 212 204 202 194 195 190 209 189 213 215 228 175 172 165 172 181 182 168 182 169 149 155 74 130 158 179 200 205 297 156 149 125 78 36 351 41 20 322 328
270 340 335 321 326 280 35 104 208 313 275 207 191 189 189 186 211 190 204 226 284 191 177 166 176 176 174 166 179 175 184 162 162 166 200 133 130 109 296 174 128 103 109 305 2 45 3 316 320
287 189 168 242 264 215 75 281 256 325 319 289 218 191 178 176 186 217 216 182 194 189 173 180 176 167 173 173 190 186 189 159 202 187 168 138 150 131 16 25 167 179 201 197 203 79 324 309 218
282 312 230 229 244 5 159 106 72 10 32 326 187 179 180 171 198 197 199 212 215 183 204 179 174 171 176 183 184 192 182 198 161 136 124 140 143 153 153 223 261 257 214 203 172 156 360 354 344
177 254 345 6 15 336 114 109 318 347 348 322 256 182 186 190 189 197 189 189 173 320 250 178 173 177 181 178 169 183 183 201 180 141 118 156 141 112 282 243 234 106 76 231 181 130 97 66 340
273 322 330 207 125 184 195 217 241 253 259 300 292 210 195 194 163 171 189 187 139 229 253 196 172 171 177 174 170 166 185 205 170 170 182 183 154 165 224 188 167 37 345 348 154 162 175 179 280
91 43 38 72 346 32 125 256 216 265 282 306 289 223 208 189 141 162 172 141 109 54 59 318 262 178 179 166 168 179 184 201 185 201 214 205 200 177 199 193 132 258 4 47 142 259 238 224 252